| time (UTC) | temp F | wind direction | speed MPH | gust MPH | rain 1hr in | rain 24hr in | rain mn in | humidity % | barometer mb |
| 20260505094223 | 73 | 104 | 3.0 | 8.0 | 0.00 | 0.00 | 0.00 | 47 | 965.9 |
| 20260505093223 | 73 | 104 | 3.0 | 8.0 | 0.00 | 0.00 | 0.00 | 47 | 965.9 |
| 20260505092223 | 72 | 45 | 2.0 | 6.0 | 0.00 | 0.00 | 0.00 | 50 | 966.1 |
| 20260505091223 | 71 | 161 | 2.0 | 6.0 | 0.00 | 0.00 | 0.00 | 50 | 966.2 |
| 20260505090223 | 71 | 123 | 2.0 | 6.0 | 0.00 | 0.00 | 0.00 | 52 | 966.3 |
| 20260505085223 | 71 | 123 | 2.0 | 6.0 | 0.00 | 0.00 | 0.00 | 52 | 966.3 |
| 20260505084223 | 69 | 135 | 2.0 | 4.0 | 0.00 | 0.00 | 0.00 | 52 | 966.4 |
| 20260505081223 | 67 | 11 | 1.0 | 4.0 | 0.00 | 0.00 | 0.00 | 56 | 966.6 |
| 20260505080223 | 66 | 142 | 2.0 | 4.0 | 0.00 | 0.00 | 0.00 | 58 | 966.8 |
| 20260505075223 | 66 | 142 | 2.0 | 4.0 | 0.00 | 0.00 | 0.00 | 58 | 966.8 |
| 20260505074223 | 65 | 9 | 1.0 | 3.0 | 0.00 | 0.00 | 0.00 | 59 | 966.8 |
| 20260505073223 | 64 | 90 | 1.0 | 3.0 | 0.00 | 0.00 | 0.00 | 60 | 967.0 |
| 20260505072223 | 64 | 90 | 1.0 | 3.0 | 0.00 | 0.00 | 0.00 | 60 | 967.0 |
| 20260505071223 | 64 | 315 | 1.0 | 2.0 | 0.00 | 0.00 | 0.00 | 61 | 967.1 |
| 20260505070223 | 63 | 90 | 2.0 | 6.0 | 0.00 | 0.00 | 0.00 | 63 | 967.1 |
| 20260505065223 | 63 | 90 | 2.0 | 6.0 | 0.00 | 0.00 | 0.00 | 63 | 967.1 |
| 20260505063223 | 60 | 90 | 1.0 | 3.0 | 0.00 | 0.00 | 0.00 | 63 | 967.4 |
| 20260505062223 | 60 | 90 | 1.0 | 3.0 | 0.00 | 0.00 | 0.00 | 63 | 967.4 |
| 20260505061223 | 60 | 315 | 1.0 | 2.0 | 0.00 | 0.00 | 0.00 | 63 | 967.5 |
| 20260505060223 | 60 | 90 | 1.0 | 2.0 | 0.00 | 0.00 | 0.00 | 63 | 967.5 |
| 20260505055223 | 59 | 315 | 1.0 | 2.0 | 0.00 | 0.00 | 0.00 | 63 | 967.3 |
| 20260505054223 | 59 | 315 | 1.0 | 2.0 | 0.00 | 0.00 | 0.00 | 63 | 967.3 |
| 20260505053223 | 59 | 315 | 1.0 | 2.0 | 0.00 | 0.00 | 0.00 | 63 | 967.4 |
| 20260505052223 | 59 | 196 | 1.0 | 3.0 | 0.00 | 0.00 | 0.00 | 62 | 967.5 |
| 20260505051223 | 59 | 196 | 1.0 | 3.0 | 0.00 | 0.00 | 0.00 | 62 | 967.5 |
| 20260505050223 | 59 | 184 | 1.0 | 2.0 | 0.00 | 0.00 | 0.00 | 61 | 967.4 |
| 20260505041223 | 60 | 333 | 1.0 | 2.0 | 0.00 | 0.00 | 0.00 | 59 | 967.5 |
| 20260505040223 | 60 | 333 | 1.0 | 2.0 | 0.00 | 0.00 | 0.00 | 59 | 967.5 |
| 20260505035223 | 60 | 315 | 1.0 | 2.0 | 0.00 | 0.00 | 0.00 | 58 | 967.5 |
| 20260505034223 | 61 | 174 | 1.0 | 2.0 | 0.00 | 0.00 | 0.00 | 56 | 967.8 |
| 20260505033223 | 61 | 174 | 1.0 | 2.0 | 0.00 | 0.00 | 0.00 | 56 | 967.8 |
| 20260505032223 | 61 | 174 | 1.0 | 2.0 | 0.00 | 0.00 | 0.00 | 56 | 967.8 |
| 20260505031223 | 61 | 174 | 1.0 | 2.0 | 0.00 | 0.00 | 0.00 | 56 | 967.8 |
| 20260505030223 | 61 | 174 | 1.0 | 2.0 | 0.00 | 0.00 | 0.00 | 56 | 967.8 |
| 20260505025223 | 61 | 344 | 1.0 | 3.0 | 0.00 | 0.00 | 0.00 | 56 | 967.8 |
| 20260505024223 | 61 | 344 | 1.0 | 3.0 | 0.00 | 0.00 | 0.00 | 56 | 967.8 |
| 20260505023223 | 61 | 90 | 1.0 | 2.0 | 0.00 | 0.00 | 0.00 | 55 | 967.9 |
| 20260505022223 | 62 | 333 | 1.0 | 2.0 | 0.00 | 0.00 | 0.00 | 55 | 967.9 |
| 20260505021223 | 62 | 225 | 1.0 | 2.0 | 0.00 | 0.00 | 0.00 | 54 | 968.0 |
| 20260505020223 | 62 | 225 | 1.0 | 2.0 | 0.00 | 0.00 | 0.00 | 54 | 968.0 |
| 20260505015223 | 62 | 270 | 1.0 | 2.0 | 0.00 | 0.00 | 0.00 | 53 | 968.1 |
| 20260505014223 | 63 | 360 | 1.0 | 2.0 | 0.00 | 0.00 | 0.00 | 51 | 968.6 |
| 20260505013223 | 63 | 360 | 1.0 | 2.0 | 0.00 | 0.00 | 0.00 | 51 | 968.6 |
| 20260505012223 | 63 | 360 | 1.0 | 2.0 | 0.00 | 0.00 | 0.00 | 51 | 968.6 |
| 20260505011223 | 63 | 360 | 1.0 | 2.0 | 0.00 | 0.00 | 0.00 | 51 | 968.6 |
| 20260505010223 | 63 | 360 | 1.0 | 2.0 | 0.00 | 0.00 | 0.00 | 51 | 968.6 |
| 20260505005223 | 63 | 360 | 1.0 | 2.0 | 0.00 | 0.00 | 0.00 | 51 | 968.6 |
| 20260505004223 | 63 | 329 | 1.0 | 2.0 | 0.00 | 0.00 | 0.00 | 51 | 968.7 |
| 20260505003223 | 63 | 332 | 1.0 | 3.0 | 0.00 | 0.00 | 0.00 | 50 | 968.7 |
| 20260505002223 | 63 | 338 | 1.0 | 2.0 | 0.00 | 0.00 | 0.00 | 50 | 968.8 |
| 20260505001223 | 63 | 323 | 1.0 | 2.0 | 0.00 | 0.00 | 0.00 | 49 | 968.8 |
| 20260505000223 | 64 | 315 | 2.0 | 4.0 | 0.00 | 0.00 | 0.00 | 49 | 968.8 |
| 20260504235223 | 64 | 339 | 1.0 | 2.0 | 0.00 | 0.00 | 0.00 | 49 | 968.9 |
| 20260504234223 | 64 | 340 | 2.0 | 3.0 | 0.00 | 0.00 | 0.00 | 48 | 969.0 |
| 20260504233223 | 64 | 322 | 2.0 | 3.0 | 0.00 | 0.00 | 0.00 | 48 | 969.1 |
| 20260504232223 | 64 | 340 | 2.0 | 3.0 | 0.00 | 0.00 | 0.00 | 47 | 969.2 |
| 20260504231223 | 65 | 315 | 1.0 | 4.0 | 0.00 | 0.00 | 0.00 | 47 | 969.3 |
| 20260504230223 | 65 | 337 | 2.0 | 4.0 | 0.00 | 0.00 | 0.00 | 46 | 969.5 |
| 20260504225223 | 65 | 333 | 2.0 | 5.0 | 0.00 | 0.00 | 0.00 | 46 | 969.6 |
| 20260504224223 | 65 | 320 | 2.0 | 3.0 | 0.00 | 0.00 | 0.00 | 45 | 969.7 |
| 20260504223223 | 66 | 322 | 2.0 | 5.0 | 0.00 | 0.00 | 0.00 | 44 | 969.6 |
| 20260504222223 | 66 | 323 | 2.0 | 3.0 | 0.00 | 0.00 | 0.00 | 44 | 969.7 |
| 20260504221223 | 66 | 304 | 2.0 | 3.0 | 0.00 | 0.00 | 0.00 | 43 | 969.7 |
| 20260504220223 | 67 | 304 | 1.0 | 2.0 | 0.00 | 0.00 | 0.00 | 43 | 969.7 |
| 20260504215223 | 67 | 270 | 1.0 | 3.0 | 0.00 | 0.00 | 0.00 | 43 | 969.6 |
| 20260504214223 | 67 | 332 | 2.0 | 3.0 | 0.00 | 0.00 | 0.00 | 42 | 969.6 |
| 20260504213223 | 67 | 341 | 1.0 | 2.0 | 0.00 | 0.00 | 0.00 | 43 | 969.6 |
| 20260504212223 | 67 | 333 | 1.0 | 3.0 | 0.00 | 0.00 | 0.00 | 42 | 969.7 |
| 20260504211223 | 67 | 300 | 2.0 | 4.0 | 0.00 | 0.00 | 0.00 | 42 | 969.6 |
| 20260504210223 | 68 | 315 | 2.0 | 4.0 | 0.00 | 0.00 | 0.00 | 41 | 969.7 |
| 20260504205223 | 68 | 330 | 2.0 | 3.0 | 0.00 | 0.00 | 0.00 | 41 | 969.9 |
| 20260504204223 | 68 | 225 | 2.0 | 4.0 | 0.00 | 0.00 | 0.00 | 40 | 969.9 |
| 20260504203223 | 68 | 315 | 2.0 | 6.0 | 0.00 | 0.00 | 0.00 | 39 | 969.9 |
| 20260504202223 | 69 | 315 | 2.0 | 4.0 | 0.00 | 0.00 | 0.00 | 38 | 969.9 |
| 20260504201223 | 69 | 343 | 2.0 | 3.0 | 0.00 | 0.00 | 0.00 | 37 | 970.0 |
| 20260504200223 | 69 | 336 | 1.0 | 3.0 | 0.00 | 0.00 | 0.00 | 37 | 970.0 |
| 20260504195223 | 70 | 116 | 2.0 | 4.0 | 0.00 | 0.00 | 0.00 | 37 | 970.0 |
| 20260504194223 | 70 | 330 | 1.0 | 2.0 | 0.00 | 0.00 | 0.00 | 36 | 970.0 |
| 20260504193223 | 70 | 311 | 2.0 | 3.0 | 0.00 | 0.00 | 0.00 | 36 | 969.9 |
| 20260504192223 | 71 | 315 | 1.0 | 2.0 | 0.00 | 0.00 | 0.00 | 35 | 969.9 |
| 20260504191223 | 71 | 329 | 1.0 | 2.0 | 0.00 | 0.00 | 0.00 | 35 | 969.8 |
| 20260504190223 | 71 | 320 | 1.0 | 2.0 | 0.00 | 0.00 | 0.00 | 35 | 969.8 |
| 20260504185223 | 72 | 315 | 1.0 | 3.0 | 0.00 | 0.00 | 0.00 | 34 | 969.8 |
| 20260504184223 | 72 | 303 | 1.0 | 2.0 | 0.00 | 0.00 | 0.00 | 34 | 969.7 |
| 20260504183223 | 73 | 332 | 1.0 | 2.0 | 0.00 | 0.00 | 0.00 | 34 | 969.7 |
| 20260504182223 | 73 | 315 | 1.0 | 2.0 | 0.00 | 0.00 | 0.00 | 33 | 969.6 |
| 20260504181223 | 74 | 284 | 2.0 | 4.0 | 0.00 | 0.00 | 0.00 | 32 | 969.5 |
| 20260504180223 | 75 | 318 | 1.0 | 3.0 | 0.00 | 0.00 | 0.00 | 31 | 969.4 |
| 20260504175223 | 75 | 341 | 1.0 | 3.0 | 0.00 | 0.00 | 0.00 | 30 | 969.4 |
| 20260504174223 | 76 | 45 | 1.0 | 3.0 | 0.00 | 0.00 | 0.00 | 29 | 969.4 |
| 20260504173223 | 76 | 325 | 1.0 | 3.0 | 0.00 | 0.00 | 0.00 | 28 | 969.4 |
| 20260504172223 | 77 | 317 | 2.0 | 3.0 | 0.00 | 0.00 | 0.00 | 28 | 969.5 |
| 20260504171223 | 77 | 315 | 2.0 | 4.0 | 0.00 | 0.00 | 0.00 | 28 | 969.5 |
| 20260504170223 | 77 | 307 | 2.0 | 5.0 | 0.00 | 0.00 | 0.00 | 27 | 969.6 |
| 20260504160223 | 77 | 304 | 2.0 | 6.0 | 0.00 | 0.00 | 0.00 | 27 | 969.9 |
| 20260504150223 | 78 | 270 | 2.0 | 6.0 | 0.00 | 0.00 | 0.00 | 27 | 970.2 |
| 20260504141223 | 79 | 197 | 3.0 | 6.0 | 0.00 | 0.00 | 0.00 | 27 | 970.5 |
| 20260504140223 | 79 | 218 | 2.0 | 6.0 | 0.00 | 0.00 | 0.00 | 27 | 970.6 |
| 20260504130223 | 79 | 164 | 2.0 | 5.0 | 0.00 | 0.00 | 0.00 | 29 | 971.2 |
| 20260504120223 | 77 | 151 | 2.0 | 7.0 | 0.00 | 0.00 | 0.00 | 31 | 971.5 |
| 20260504110223 | 76 | 228 | 2.0 | 5.0 | 0.00 | 0.00 | 0.00 | 31 | 972.1 |
| 20260504100223 | 74 | 110 | 2.0 | 8.0 | 0.00 | 0.00 | 0.00 | 34 | 972.9 |